GW3644 Weather Reports


Display with metric or nautical units.
time (UTC)temp
F
wind
direction
speed
MPH
gust
MPH
rain 1hr
in
rain 24hr
in
rain mn
in
humidity
%
barometer
mb
20260510022003 53 2 8.0 15.0 0.26 0.39 0.36 100 1012.7
20260510021717 53 358 6.0 14.0 0.24 0.37 0.34 97 1012.6
20260510021003 53 354 9.0 12.0 0.08 0.22 0.18 96 1012.6
20260510020717 54 349 5.0 8.0 0.05 0.20 0.15 95 1012.3
20260510020216 54 5 8.0 15.0 0.04 0.18 0.13 94 1012.5
20260510015503 55 358 12.0 24.0 0.02 0.18 0.12 88 1012.1
20260510015216 56 338 10.0 19.0 0.00 0.15 0.10 84 1012.0
20260510014503 60 340 15.0 21.0 0.00 0.15 0.10 75 1011.7
20260510014003 62 273 7.0 10.0 0.00 0.15 0.10 69 1011.2
20260510013504 62 208 6.0 12.0 0.00 0.15 0.10 69 1010.0
20260510013003 62 215 8.0 14.0 0.00 0.15 0.10 68 1009.8
20260510012503 62 197 6.0 10.0 0.00 0.15 0.10 69 1009.7
20260510012003 62 197 9.0 12.0 0.00 0.15 0.10 68 1009.6
20260510011717 62 201 8.0 14.0 0.00 0.15 0.10 69 1009.5
20260510011003 62 207 8.0 14.0 0.00 0.15 0.10 68 1009.5
20260510010503 62 227 8.0 10.0 0.00 0.15 0.10 68 1009.3
20260510010003 62 205 9.0 14.0 0.00 0.16 0.10 67 1009.6
20260510005503 62 205 8.0 12.0 0.00 0.16 0.10 67 1009.5
20260510005003 62 204 8.0 10.0 0.00 0.16 0.10 67 1009.5
20260510004503 63 210 7.0 15.0 0.00 0.16 0.10 67 1009.6
20260510004003 63 219 12.0 17.0 0.00 0.16 0.10 66 1009.5
20260510003503 62 207 7.0 14.0 0.00 0.16 0.10 67 1009.7
20260510003003 63 194 6.0 10.0 0.00 0.16 0.10 66 1009.6
20260510002503 63 202 7.0 10.0 0.00 0.16 0.10 66 1009.3
20260510002003 63 211 11.0 12.0 0.00 0.16 0.10 65 1009.3
20260510001717 63 216 7.0 12.0 0.00 0.16 0.10 66 1009.1
20260510001004 63 209 9.0 15.0 0.00 0.16 0.10 64 1009.1
20260510000503 64 209 6.0 14.0 0.00 0.16 0.10 65 1009.2
20260510000219 64 215 8.0 12.0 0.00 0.16 0.10 64 1009.1
20260509235503 64 215 11.0 19.0 0.00 0.16 0.10 63 1009.0
20260509235218 64 223 12.0 22.0 0.00 0.16 0.10 63 1008.9
20260509234503 64 207 12.0 24.0 0.00 0.16 0.10 63 1008.9
20260509234003 64 218 9.0 26.0 0.00 0.16 0.10 63 1008.9
20260509233503 64 215 10.0 15.0 0.00 0.16 0.10 63 1008.8
20260509233004 65 222 11.0 19.0 0.00 0.16 0.10 63 1008.8
20260509232503 64 197 8.0 17.0 0.00 0.16 0.10 63 1009.0
20260509232217 65 201 11.0 17.0 0.00 0.16 0.10 63 1009.0
20260509231503 65 217 11.0 24.0 0.00 0.16 0.10 62 1008.8
20260509231003 65 221 16.0 24.0 0.00 0.16 0.10 62 1008.8
20260509230716 65 216 6.0 14.0 0.00 0.16 0.10 62 1008.8
20260509230217 65 217 11.0 24.0 0.00 0.16 0.10 62 1008.6
20260509225503 65 217 15.0 17.0 0.00 0.16 0.10 62 1008.6
20260509225003 65 196 12.0 24.0 0.00 0.16 0.10 62 1008.5
20260509224503 65 209 14.0 29.0 0.00 0.16 0.10 62 1008.5
20260509224003 65 196 20.0 27.0 0.00 0.16 0.10 62 1008.6
20260509223503 65 201 13.0 26.0 0.00 0.16 0.10 62 1008.3
20260509223003 66 217 7.0 14.0 0.00 0.16 0.10 61 1008.4
20260509222718 66 215 7.0 14.0 0.00 0.16 0.10 60 1008.3
20260509222003 66 215 11.0 17.0 0.00 0.16 0.10 61 1008.3
20260509221503 66 217 12.0 26.0 0.00 0.16 0.10 61 1008.4
20260509221217 66 191 12.0 24.0 0.00 0.16 0.10 61 1008.4
20260509220503 65 216 11.0 21.0 0.00 0.16 0.10 62 1008.7
20260509220003 65 218 13.0 22.0 0.00 0.16 0.10 63 1008.7
20260509215503 65 214 9.0 19.0 0.00 0.16 0.10 62 1008.9
20260509215003 65 196 8.0 15.0 0.00 0.16 0.10 63 1008.7
20260509214503 65 216 14.0 24.0 0.00 0.16 0.10 63 1009.0
20260509214219 65 206 12.0 24.0 0.00 0.16 0.10 63 1008.9
20260509213504 66 209 9.0 15.0 0.00 0.16 0.10 62 1008.7
20260509213003 65 191 12.0 17.0 0.00 0.16 0.10 63 1008.9
20260509212503 65 211 17.0 24.0 0.00 0.16 0.10 64 1009.1
20260509212217 65 203 16.0 29.0 0.00 0.16 0.10 64 1009.0
20260509211503 66 211 12.0 17.0 0.00 0.16 0.10 63 1009.1
20260509211003 65 193 13.0 19.0 0.00 0.16 0.10 64 1009.0
20260509210503 65 209 12.0 17.0 0.00 0.16 0.10 64 1009.1
20260509210218 65 223 7.0 12.0 0.00 0.16 0.10 64 1009.1
20260509205503 64 219 15.0 26.0 0.00 0.16 0.10 66 1009.1
20260509205003 65 219 11.0 17.0 0.00 0.16 0.10 65 1009.3
20260509204504 65 193 8.0 17.0 0.00 0.16 0.10 67 1009.2
20260509204003 65 217 13.0 17.0 0.00 0.16 0.10 66 1009.2
20260509203503 64 200 16.0 24.0 0.00 0.16 0.10 67 1009.6
20260509203003 63 211 11.0 17.0 0.00 0.16 0.10 70 1009.5
20260509202504 63 199 9.0 26.0 0.00 0.16 0.10 71 1009.6
20260509202004 64 214 14.0 17.0 0.00 0.16 0.10 69 1009.6
20260509201503 63 242 11.0 22.0 0.00 0.16 0.10 69 1009.8
20260509201003 63 221 12.0 17.0 0.00 0.16 0.10 69 1009.8
20260509200503 63 238 9.0 14.0 0.00 0.16 0.10 70 1009.8
20260509200003 63 217 8.0 17.0 0.00 0.16 0.10 69 1009.8
20260509195717 63 207 13.0 17.0 0.00 0.16 0.10 70 1009.8
20260509195003 63 221 17.0 22.0 0.00 0.16 0.10 69 1010.0
20260509194503 63 248 11.0 19.0 0.00 0.16 0.10 70 1009.9
20260509194003 63 225 12.0 24.0 0.00 0.16 0.10 70 1009.8
20260509193503 63 227 9.0 24.0 0.00 0.16 0.10 70 1010.0
20260509193218 63 221 12.0 24.0 0.00 0.16 0.10 72 1009.9
20260509192503 62 227 12.0 24.0 0.00 0.17 0.10 72 1010.0
20260509192218 63 227 7.0 17.0 0.00 0.17 0.10 71 1010.3
20260509191503 62 223 11.0 15.0 0.00 0.17 0.10 73 1010.0
20260509191003 62 223 13.0 15.0 0.00 0.17 0.10 74 1010.3
20260509190719 62 209 12.0 15.0 0.00 0.17 0.10 74 1010.4
20260509190003 62 216 14.0 19.0 0.00 0.17 0.10 74 1010.4
20260509185503 61 195 6.0 14.0 0.00 0.17 0.10 77 1010.5
20260509185218 61 195 7.0 15.0 0.00 0.17 0.10 77 1010.5
20260509184503 61 212 11.0 26.0 0.00 0.17 0.10 76 1010.5
20260509184003 60 228 14.0 19.0 0.00 0.17 0.10 77 1010.6
20260509183503 60 225 13.0 22.0 0.00 0.17 0.10 77 1010.7
20260509183003 60 213 17.0 24.0 0.00 0.17 0.10 77 1010.7
20260509182503 60 209 15.0 21.0 0.00 0.17 0.10 78 1010.7
20260509182003 60 208 10.0 17.0 0.00 0.17 0.10 78 1010.8
20260509181503 59 214 17.0 26.0 0.00 0.17 0.10 80 1010.6
20260509181003 59 200 17.0 24.0 0.00 0.17 0.10 79 1010.8
20260509180503 60 209 14.0 26.0 0.00 0.17 0.10 80 1010.8
20260509180003 60 221 15.0 24.0 0.00 0.17 0.10 78 1010.7
20260509175503 59 230 14.0 17.0 0.00 0.17 0.10 79 1010.8
20260509175217 59 259 7.0 22.0 0.00 0.17 0.10 79 1010.8
20260509174503 59 222 11.0 17.0 0.00 0.17 0.10 78 1010.8
20260509174217 59 204 6.0 14.0 0.00 0.17 0.10 79 1010.8
20260509173503 59 232 12.0 19.0 0.00 0.17 0.10 79 1010.9
20260509173003 59 237 11.0 19.0 0.00 0.17 0.10 80 1010.9
20260509172718 59 247 12.0 19.0 0.00 0.17 0.10 80 1010.8
20260509172003 60 222 9.0 15.0 0.00 0.17 0.10 80 1010.9
20260509171503 59 221 13.0 21.0 0.00 0.17 0.10 81 1010.6
20260509171003 58 221 11.0 19.0 0.00 0.17 0.10 81 1010.5
20260509170503 59 244 13.0 22.0 0.00 0.17 0.10 82 1010.6
20260509170003 60 194 12.0 19.0 0.00 0.17 0.10 80 1010.6
20260509165503 59 224 12.0 21.0 0.00 0.17 0.10 83 1010.7
20260509165003 58 211 9.0 15.0 0.00 0.17 0.10 85 1010.7
20260509164503 58 212 10.0 17.0 0.00 0.17 0.10 85 1010.5
20260509164003 58 191 6.0 14.0 0.00 0.17 0.10 85 1010.4
20260509163503 58 212 10.0 14.0 0.00 0.17 0.10 85 1010.5
20260509163217 58 224 10.0 17.0 0.00 0.17 0.10 85 1010.5
20260509162503 58 210 12.0 17.0 0.00 0.17 0.10 86 1010.5
20260509162003 58 167 13.0 21.0 0.00 0.17 0.10 87 1010.4
20260509161503 57 231 6.0 15.0 0.00 0.17 0.10 88 1010.4
20260509161217 57 216 7.0 15.0 0.00 0.17 0.10 88 1010.4
20260509160504 57 204 15.0 22.0 0.00 0.17 0.10 88 1010.4
20260509160003 57 212 11.0 21.0 0.00 0.17 0.10 87 1010.6
20260509155503 57 206 7.0 17.0 0.00 0.17 0.10 91 1010.3
20260509155003 56 202 15.0 21.0 0.00 0.17 0.10 91 1010.3
20260509154503 56 188 12.0 15.0 0.00 0.17 0.10 92 1010.4
20260509154003 55 190 9.0 14.0 0.00 0.17 0.10 95 1010.3
20260509153503 55 179 11.0 14.0 0.00 0.17 0.10 96 1010.4
20260509153003 54 199 10.0 12.0 0.00 0.17 0.10 100 1010.3
20260509152503 54 194 7.0 10.0 0.00 0.17 0.10 100 1010.5
20260509152004 52 224 6.0 14.0 0.00 0.17 0.10 100 1010.6
20260509151717 52 226 7.0 8.0 0.00 0.17 0.10 100 1010.7
20260509151216 52 232 5.0 7.0 0.00 0.17 0.10 100 1010.7
20260509150504 52 194 5.0 8.0 0.01 0.17 0.10 100 1010.6
20260509150003 52 218 4.0 10.0 0.01 0.17 0.10 100 1010.5
20260509145503 52 203 7.0 14.0 0.01 0.17 0.10 100 1010.6
20260509145003 52 209 6.0 12.0 0.01 0.17 0.10 100 1010.4
20260509144503 52 218 6.0 10.0 0.01 0.17 0.10 100 1010.7
20260509144003 52 214 8.0 10.0 0.01 0.17 0.10 100 1010.6
20260509143503 52 220 10.0 14.0 0.01 0.17 0.10 100 1010.7
20260509143003 52 197 8.0 15.0 0.01 0.17 0.10 100 1010.5
20260509142503 52 193 8.0 10.0 0.01 0.17 0.10 100 1010.5
20260509142218 52 198 6.0 8.0 0.01 0.17 0.10 100 1010.5
20260509141503 51 196 4.0 10.0 0.01 0.17 0.10 100 1010.5
20260509141003 51 207 6.0 10.0 0.01 0.17 0.10 100 1010.7
20260509140503 51 204 6.0 10.0 0.00 0.16 0.09 100 1010.6
20260509140004 51 200 7.0 10.0 0.00 0.16 0.09 100 1010.7
20260509135503 51 198 7.0 12.0 0.00 0.16 0.09 100 1010.8
20260509135003 51 204 8.0 12.0 0.00 0.16 0.09 100 1010.9
20260509134717 51 202 9.0 12.0 0.01 0.16 0.09 100 1010.7
20260509134218 51 205 4.0 12.0 0.01 0.16 0.09 100 1010.6
20260509133503 51 210 10.0 15.0 0.01 0.16 0.09 100 1010.6
20260509133004 51 205 4.0 14.0 0.02 0.16 0.09 100 1010.7
20260509132504 51 206 7.0 10.0 0.02 0.16 0.09 100 1010.7
20260509132218 50 206 7.0 10.0 0.02 0.16 0.09 100 1010.8
20260509131503 50 203 7.0 14.0 0.02 0.16 0.09 100 1010.7
20260509131003 50 200 8.0 12.0 0.04 0.16 0.09 100 1010.7
20260509130503 50 211 6.0 10.0 0.04 0.16 0.09 100 1010.7
20260509130003 50 211 7.0 10.0 0.04 0.16 0.09 100 1010.8
20260509125503 50 207 7.0 15.0 0.04 0.16 0.09 100 1010.9
20260509125003 50 213 8.0 12.0 0.04 0.16 0.09 100 1010.8
20260509124503 50 200 6.0 12.0 0.04 0.15 0.08 100 1010.8
20260509124003 50 195 7.0 10.0 0.04 0.15 0.08 100 1011.0
20260509123503 50 200 6.0 12.0 0.04 0.15 0.08 100 1010.7
20260509123003 50 203 9.0 12.0 0.03 0.14 0.07 100 1010.9
20260509122503 50 206 6.0 10.0 0.03 0.14 0.07 100 1011.0
20260509122004 50 208 6.0 12.0 0.04 0.14 0.07 100 1010.9
20260509121504 50 200 11.0 12.0 0.04 0.14 0.07 100 1010.9
20260509121003 50 211 7.0 10.0 0.04 0.13 0.05 100 1011.1
20260509120503 50 204 7.0 10.0 0.04 0.13 0.05 100 1010.8
20260509120217 50 199 7.0 12.0 0.04 0.13 0.05 100 1011.0
20260509115503 50 203 7.0 10.0 0.04 0.13 0.05 100 1011.1
20260509115004 50 202 6.0 10.0 0.04 0.13 0.05 100 1010.9
20260509114718 50 213 6.0 10.0 0.03 0.12 0.04 100 1010.8
20260509114217 50 202 6.0 12.0 0.03 0.12 0.04 100 1010.9
20260509113503 50 200 8.0 12.0 0.02 0.11 0.04 100 1011.0
20260509113003 50 214 7.0 12.0 0.02 0.11 0.04 100 1010.8
20260509112503 50 196 8.0 14.0 0.02 0.11 0.04 100 1010.7
20260509112003 50 187 4.0 10.0 0.01 0.10 0.02 100 1010.8
20260509111503 50 203 4.0 7.0 0.01 0.10 0.02 100 1010.7
20260509111217 50 201 5.0 10.0 0.01 0.10 0.02 100 1010.7
20260509110503 50 198 5.0 10.0 0.00 0.09 0.01 100 1010.6
20260509110217 50 209 6.0 10.0 0.00 0.09 0.01 100 1010.7
20260509105503 50 211 8.0 10.0 0.00 0.09 0.01 100 1010.5
20260509105003 50 205 5.0 12.0 0.00 0.09 0.01 100 1010.6
20260509104503 50 206 5.0 8.0 0.01 0.09 0.01 100 1010.5
20260509104216 50 212 6.0 10.0 0.01 0.09 0.01 100 1010.5
20260509103503 50 197 5.0 7.0 0.01 0.09 0.01 100 1010.6
20260509103003 50 193 4.0 5.0 0.01 0.09 0.01 100 1010.5
20260509102503 50 204 6.0 10.0 0.01 0.09 0.01 100 1010.5
20260509102004 49 200 4.0 8.0 0.01 0.09 0.01 100 1010.5
20260509101503 49 201 6.0 10.0 0.01 0.09 0.01 100 1010.5
20260509101003 49 199 5.0 7.0 0.01 0.09 0.01 100 1010.4
20260509100503 49 188 3.0 7.0 0.01 0.09 0.01 100 1010.5
20260509100004 49 197 4.0 5.0 0.01 0.09 0.01 100 1010.6
20260509095717 49 195 2.0 5.0 0.01 0.09 0.01 100 1010.7
20260509095216 49 197 3.0 7.0 0.01 0.09 0.01 100 1010.7
20260509094504 49 217 6.0 8.0 0.00 0.07 0.00 100 1010.9
20260509094003 49 200 5.0 7.0 0.00 0.07 0.00 100 1010.8
20260509093503 49 190 4.0 7.0 0.00 0.07 0.00 100 1010.8
20260509093003 49 194 7.0 10.0 0.00 0.07 0.00 100 1010.9
20260509092503 48 176 4.0 7.0 0.00 0.07 0.00 100 1010.8
20260509092003 48 173 5.0 7.0 0.00 0.07 0.00 100 1010.8
20260509091503 48 171 3.0 3.0 0.00 0.07 0.00 100 1011.0
20260509091003 48 177 4.0 5.0 0.00 0.07 0.00 100 1011.3
20260509090503 48 170 2.0 3.0 0.00 0.07 0.00 100 1010.9
20260509090003 48 176 3.0 5.0 0.00 0.07 0.00 100 1011.0
20260509085504 48 170 1.0 2.0 0.00 0.07 0.00 100 1010.9
20260509085003 48 170 2.0 3.0 0.00 0.07 0.00 100 1011.2
20260509084503 48 171 3.0 5.0 0.00 0.07 0.00 100 1011.2
20260509084003 48 168 3.0 3.0 0.00 0.07 0.00 100 1011.2
20260509083717 48 164 3.0 3.0 0.00 0.07 0.00 100 1011.2
20260509083003 48 153 2.0 2.0 0.00 0.07 0.00 100 1011.2
20260509082503 48 72 0.0 2.0 0.00 0.07 0.00 100 1011.3
20260509082004 48 0 0.0 0.0 0.00 0.07 0.00 100 1011.2
20260509081503 48 0 0.0 0.0 0.00 0.07 0.00 100 1011.3
20260509081218 48 0 0.0 0.0 0.00 0.07 0.00 100 1011.3
20260509080716 48 109 0.0 3.0 0.00 0.07 0.00 100 1011.1
20260509080003 48 154 2.0 2.0 0.00 0.07 0.00 100 1011.2
20260509075716 48 154 2.0 2.0 0.00 0.07 0.00 100 1011.2
20260509075003 48 132 1.0 2.0 0.00 0.07 0.00 100 1011.1
20260509074503 48 138 2.0 2.0 0.00 0.07 0.00 100 1011.2
20260509074003 48 0 0.0 0.0 0.00 0.07 0.00 100 1011.4
20260509073503 48 148 0.0 2.0 0.00 0.07 0.00 100 1011.3
20260509073003 48 148 1.0 2.0 0.00 0.07 0.00 100 1011.3
20260509072503 48 147 0.0 2.0 0.00 0.07 0.00 100 1011.3
20260509072003 48 147 0.0 2.0 0.00 0.07 0.00 100 1011.1
20260509071503 48 148 0.0 2.0 0.00 0.07 0.00 100 1011.3
20260509071003 48 145 1.0 2.0 0.00 0.07 0.00 100 1011.2
20260509070503 48 140 2.0 3.0 0.00 0.07 0.00 100 1011.2
20260509070003 48 135 2.0 3.0 0.00 0.07 0.00 100 1011.2
20260509065503 48 154 2.0 2.0 0.00 0.07 0.00 100 1011.4
20260509065003 48 153 2.0 3.0 0.00 0.07 0.00 100 1011.3
20260509064503 48 140 1.0 3.0 0.00 0.07 0.00 100 1011.4
20260509064003 48 120 1.0 7.0 0.00 0.07 0.00 100 1011.3
20260509063503 48 143 2.0 5.0 0.00 0.07 0.00 100 1011.5
20260509063003 48 137 2.0 7.0 0.00 0.07 0.00 100 1011.3
20260509062503 48 120 4.0 7.0 0.00 0.07 0.00 100 1011.3
20260509062003 48 120 3.0 5.0 0.00 0.07 0.00 100 1011.4
20260509061718 48 121 2.0 5.0 0.00 0.07 0.00 100 1011.4
20260509061217 48 129 3.0 3.0 0.00 0.07 0.00 100 1011.4
20260509060503 48 127 0.0 2.0 0.00 0.07 0.00 100 1011.7
20260509060217 48 93 0.0 3.0 0.00 0.07 0.00 100 1011.7
20260509055503 48 114 2.0 3.0 0.00 0.07 0.00 100 1011.7
20260509055219 48 107 2.0 3.0 0.00 0.07 0.00 100 1011.8
20260509054503 48 110 1.0 3.0 0.00 0.07 0.00 100 1012.1
20260509054003 48 109 1.0 5.0 0.00 0.07 0.00 100 1011.8
20260509053718 48 113 1.0 2.0 0.00 0.07 0.00 100 1011.8
20260509053003 48 114 2.0 3.0 0.00 0.07 0.00 100 1012.2
20260509052503 48 111 1.0 3.0 0.00 0.07 0.00 100 1011.9
20260509052003 48 119 2.0 3.0 0.00 0.07 0.00 100 1012.1
20260509051503 48 128 0.0 3.0 0.00 0.07 0.00 100 1012.0
20260509051003 48 117 2.0 3.0 0.00 0.07 0.00 100 1012.4
20260509050503 48 115 2.0 3.0 0.00 0.07 0.00 100 1012.3
20260509050216 48 113 2.0 5.0 0.00 0.07 0.00 100 1012.5
20260509045717 48 120 4.0 5.0 0.00 0.07 0.00 100 1012.1
20260509045003 48 107 4.0 7.0 0.00 0.07 0.00 100 1012.3
20260509044503 48 85 1.0 3.0 0.00 0.07 0.00 100 1012.3
20260509044003 48 79 3.0 7.0 0.00 0.07 0.00 100 1012.4
20260509043503 48 113 3.0 5.0 0.00 0.07 0.00 100 1012.4
20260509043003 48 109 4.0 7.0 0.00 0.07 0.00 100 1012.4
20260509042503 48 104 3.0 5.0 0.00 0.07 0.00 100 1012.7
20260509042004 48 111 4.0 5.0 0.01 0.07 0.00 100 1012.7
20260509041503 48 109 4.0 5.0 0.01 0.07 0.00 100 1012.7
20260509041003 49 116 2.0 5.0 0.01 0.07 0.00 100 1012.9
20260509040503 49 114 3.0 5.0 0.01 0.07 0.00 100 1013.0
20260509040003 49 113 3.0 5.0 0.01 0.07 0.00 100 1012.9
20260509035717 49 114 3.0 5.0 0.01 0.07 0.07 100 1013.0
20260509035003 49 113 3.0 5.0 0.01 0.07 0.07 100 1013.0
20260509034503 49 116 2.0 5.0 0.01 0.07 0.07 100 1013.3
20260509034004 49 108 2.0 3.0 0.02 0.07 0.07 100 1013.4
20260509033717 49 104 3.0 5.0 0.02 0.07 0.07 100 1013.5
20260509033003 49 109 1.0 3.0 0.02 0.07 0.07 100 1013.6
20260509032503 49 0 0.0 0.0 0.03 0.07 0.07 100 1013.6
20260509032003 49 102 1.0 3.0 0.02 0.06 0.06 100 1013.7
20260509031503 49 92 1.0 3.0 0.03 0.06 0.06 100 1013.6
20260509031218 49 92 2.0 3.0 0.03 0.06 0.06 100 1013.8
20260509030503 49 104 0.0 2.0 0.03 0.06 0.06 100 1013.8
20260509030218 49 97 2.0 2.0 0.03 0.06 0.06 100 1013.9
20260509025503 49 75 0.0 2.0 0.04 0.06 0.06 100 1013.9
20260509025004 49 80 1.0 2.0 0.04 0.06 0.06 100 1014.0
20260509024503 49 110 1.0 2.0 0.04 0.06 0.06 100 1014.0
20260509024003 49 134 1.0 3.0 0.04 0.05 0.05 100 1014.2
20260509023503 49 346 2.0 3.0 0.04 0.05 0.05 100 1014.1
20260509023003 50 85 0.0 2.0 0.04 0.05 0.05 100 1014.3
20260509022716 50 85 0.0 2.0 0.02 0.04 0.04 100 1014.2